Location: Newark
(51.3318°N, 0.0053°E)
Time: 01:04:17
(UTC+00:00)

Envisat - Pass Details

Date: 25 January 2022
Orbit: 764 x 765 km, 98.2° (Epoch: 22 May)

Event Time Altitude Azimuth Distance (km) Brightness Sun altitude
Rises 06:32:03 0° 6° (N) 3,244 6.1 -11.7°
Reaches altitude 10° 06:34:47 10° 352° (N) 2,313 5.2 -11.3°
Maximum altitude 06:38:39 22° 302° (WNW) 1,617 4.1 -10.7°
Drops below altitude 10° 06:42:30 10° 253° (WSW) 2,303 5.0 -10.1°
Sets 06:45:14 0° 238° (WSW) 3,225 5.8 -9.7°
